This is the latest recevied weather packets stored in our database for station/object K1JO. If no packets are shown the sender has not sent any weather packets the latest 10 day(s).
| Time | Temp. | Humidity | Pressure | Rain* | Wind** | Luminosity | Snow |
|---|---|---|---|---|---|---|---|
| 1777952819 | 5° C | 99% | 1003.7 hPa | 0 mm | - | 0 W/m² | - |
| 1777952516 | 5° C | 99% | 1003.7 hPa | 0 mm | - | 0 W/m² | - |
| 1777952212 | 5.56° C | 98% | 1003.8 hPa | 0 mm | - | 0 W/m² | - |
| 1777951911 | 6.11° C | 99% | 1003.5 hPa | 0 mm | - | 0 W/m² | - |
| 1777951609 | 5.56° C | 98% | 1003.6 hPa | 0 mm | - | 0 W/m² | - |
| 1777951304 | 5.56° C | 98% | 1003.5 hPa | 0 mm | - | 0 W/m² | - |
| 1777951002 | 5.56° C | 98% | 1003.4 hPa | 0 mm | - | 0 W/m² | - |
| 1777950698 | 6.11° C | 98% | 1003.4 hPa | 0 mm | - | 0 W/m² | - |
| 1777950395 | 5.56° C | 98% | 1003.7 hPa | 0 mm | - | 0 W/m² | - |
| 1777950091 | 6.11° C | 98% | 1003.6 hPa | 0 mm | - | 0 W/m² | - |
| 1777949787 | 6.67° C | 97% | 1003.9 hPa | 0 mm | - | 0 W/m² | - |
| 1777949486 | 6.67° C | 97% | 1003.8 hPa | 0 mm | - | 0 W/m² | - |
| 1777949183 | 6.67° C | 97% | 1003.8 hPa | 0 mm | - | 0 W/m² | - |
| 1777948880 | 6.67° C | 96% | 1004 hPa | 0 mm | - | 0 W/m² | - |
| 1777948577 | 7.22° C | 96% | 1003.7 hPa | 0 mm | - | 0 W/m² | - |
| 1777948275 | 7.22° C | 95% | 1003.7 hPa | 0 mm | - | 0 W/m² | - |
| 1777947972 | 7.78° C | 95% | 1003.9 hPa | 0 mm | - | 0 W/m² | - |
| 1777947669 | 7.78° C | 95% | 1004 hPa | 0 mm | - | 0 W/m² | - |
| 1777947365 | 7.78° C | 95% | 1003.7 hPa | 0 mm | - | 0 W/m² | - |
| 1777947062 | 7.78° C | 95% | 1003.9 hPa | 0 mm | - | 0 W/m² | - |
| 1777946762 | 7.78° C | 95% | 1004 hPa | 0 mm | - | 0 W/m² | - |
| 1777946459 | 7.78° C | 95% | 1003.9 hPa | 0 mm | - | 0 W/m² | - |
| 1777946156 | 7.78° C | 95% | 1003.9 hPa | 0 mm | - | 0 W/m² | - |
| 1777945853 | 7.78° C | 95% | 1003.9 hPa | 0 mm | - | 0 W/m² | - |
| 1777945550 | 7.78° C | 95% | 1003.8 hPa | 0 mm | - | 0 W/m² | - |
* Rain latest hour (hover to see other rain measurements)
** Current wind speed in m/s (hover to see current wind gust speed)